Weather History for KJKA - January, 2013

Change the Weather History Date:

Tuesday, January 29, 2013

  Actual Average (KPNS) Record (KPNS)
Temperature  
Mean Temperature 70 °F 52 °F  
Max Temperature 73 °F 61 °F 79 °F (1974)
Min Temperature 68 °F 43 °F 17 °F (1966)
Degree Days  
Heating Degree Days 0 13  
Month to date heating degree days 402  
Since 1 July heating degree days 984  
Cooling Degree Days 6 0  
Month to date cooling degree days 0  
Year to date cooling degree days 0  
Growing Degree Days 20 (Base 50)    
Moisture  
Dew Point 65 °F    
Average Humidity 84    
Maximum Humidity 94    
Minimum Humidity 73    
Precipitation  
Precipitation 0.00 in 0.16 in 3.16 in (1991)
Month to date precipitation 4.30  
Year to date precipitation 4.30  
Snow  
Snow 0.00 in 0.00 in - ()
Month to date snowfall 0.0  
Since 1 July snowfall 0.0  
Snow Depth -    
Sea Level Pressure  
Sea Level Pressure 30.05 in    
Wind  
Wind Speed 11 mph (SE)    
Max Wind Speed 15 mph    
Max Gust Speed 26 mph    
Visibility 6 miles    
Events Rain    
T = Trace of Precipitation, MM = Missing Value Source: NWS Daily Summary

Daily Weather History Graph

Daily Weather History Graph

Search for Another Location

Airport or City:

Trip Planner

Search our weather history database for the weather conditions in past years. The results will help you decide how hot, cold, wet, or windy it might be!

Date:

Astronomy

Jan. 29, 2013 Rise Set
Actual Time 6:42 AM CST 5:25 PM CST
Civil Twilight 6:17 AM CST 5:50 PM CST
Nautical Twilight 5:48 AM CST 6:19 PM CST
Astronomical Twilight 5:20 AM CST 6:47 PM CST
Moon 8:04 PM CST (1/29) 7:54 AM CST (1/29)
Length of Visible Light 11h 32m
Length of Day
10h 42m
Waning Gibbous, 93% of the Moon is Illuminated
Jan 29
Waning Gibbous
Feb 3
Last Quarter
Feb 10
New
Feb 17
First Quarter
Feb 25
Full

Hourly Weather History & Observations

Time (CST) Temp. Dew Point Humidity Pressure Visibility Wind Dir Wind Speed Gust Speed Precip Events Conditions
12:15 AM 68.0 °F 64.4 °F 88% 30.16 in 7.0 mi ESE 11.5 mph 18.4 mph N/A   Overcast
12:35 AM 68.0 °F 64.4 °F 88% 30.16 in 7.0 mi ESE 11.5 mph - N/A   Overcast
12:55 AM 68.0 °F 64.4 °F 88% 30.15 in 7.0 mi ESE 11.5 mph - N/A   Overcast
1:15 AM 68.0 °F 64.4 °F 88% 30.15 in 7.0 mi ESE 11.5 mph - N/A   Overcast
1:35 AM 68.0 °F 64.4 °F 88% 30.15 in 7.0 mi ESE 8.1 mph 16.1 mph N/A   Mostly Cloudy
1:55 AM 68.0 °F 64.4 °F 88% 30.14 in 7.0 mi ESE 8.1 mph - N/A   Overcast
2:15 AM 68.0 °F 64.4 °F 88% 30.14 in 7.0 mi ESE 11.5 mph - N/A   Overcast
2:35 AM 68.0 °F 64.4 °F 88% 30.13 in 7.0 mi SE 9.2 mph - N/A   Overcast
2:55 AM 69.8 °F 64.4 °F 83% 30.13 in 7.0 mi ESE 11.5 mph 17.3 mph N/A   Overcast
3:15 AM 69.8 °F 64.4 °F 83% 30.13 in 7.0 mi ESE 11.5 mph - N/A   Overcast
3:35 AM 69.8 °F 64.4 °F 83% 30.13 in 7.0 mi ESE 9.2 mph - N/A   Overcast
3:55 AM 69.8 °F 64.4 °F 83% 30.12 in 7.0 mi ESE 9.2 mph - N/A   Overcast
4:15 AM 69.8 °F 64.4 °F 83% 30.11 in 7.0 mi ESE 8.1 mph - N/A   Overcast
4:35 AM 69.8 °F 64.4 °F 83% 30.11 in 7.0 mi ESE 8.1 mph - N/A   Overcast
5:15 AM 69.8 °F 64.4 °F 83% 30.11 in 7.0 mi SE 10.4 mph - N/A   Overcast
5:35 AM 68.0 °F 64.4 °F 88% 30.11 in 5.0 mi SE 10.4 mph - N/A   Mostly Cloudy
5:55 AM 68.0 °F 64.4 °F 88% 30.11 in 5.0 mi SE 9.2 mph - N/A   Mostly Cloudy
6:15 AM 68.0 °F 64.4 °F 88% 30.11 in 4.0 mi SE 10.4 mph - N/A   Overcast
6:35 AM 68.0 °F 64.4 °F 88% 30.11 in 4.0 mi SE 9.2 mph - N/A   Overcast
6:55 AM 68.0 °F 64.4 °F 88% 30.11 in 2.5 mi SE 9.2 mph - N/A   Overcast
7:15 AM 68.0 °F 64.4 °F 88% 30.12 in 3.0 mi SE 9.2 mph - N/A   Overcast
7:35 AM 69.8 °F 66.2 °F 88% 30.12 in 4.0 mi SE 8.1 mph - N/A   Overcast
7:55 AM 69.8 °F 66.2 °F 88% 30.12 in 4.0 mi SE 10.4 mph - N/A   Overcast
8:15 AM 69.8 °F 66.2 °F 88% 30.12 in 5.0 mi SE 10.4 mph 17.3 mph N/A   Overcast
8:35 AM 71.6 °F 66.2 °F 83% 30.12 in 5.0 mi SE 11.5 mph 20.7 mph N/A   Haze
8:55 AM 71.6 °F 66.2 °F 83% 30.12 in 7.0 mi SE 11.5 mph 18.4 mph N/A   Scattered Clouds
9:15 AM 71.6 °F 64.4 °F 78% 30.12 in 7.0 mi ESE 11.5 mph 21.9 mph N/A   Mostly Cloudy
9:35 AM 71.6 °F 64.4 °F 78% 30.12 in 10.0 mi SE 10.4 mph - N/A   Mostly Cloudy
9:55 AM 71.6 °F 64.4 °F 78% 30.12 in 10.0 mi SE 12.7 mph 20.7 mph N/A   Overcast
10:15 AM 71.6 °F 64.4 °F 78% 30.12 in 7.0 mi SE 15.0 mph 20.7 mph N/A   Overcast
10:35 AM 71.6 °F 64.4 °F 78% 30.11 in 7.0 mi SE 15.0 mph 23.0 mph N/A   Overcast
10:55 AM 73.4 °F 66.2 °F 78% 30.10 in 7.0 mi SE 12.7 mph 20.7 mph N/A   Overcast
11:15 AM 73.4 °F 66.2 °F 78% 30.10 in 7.0 mi SE 13.8 mph 19.6 mph N/A   Mostly Cloudy
11:35 AM 73.4 °F 66.2 °F 78% 30.08 in 7.0 mi SE 12.7 mph 20.7 mph N/A   Scattered Clouds
11:55 AM 73.4 °F 66.2 °F 78% 30.07 in 7.0 mi SE 15.0 mph 26.5 mph N/A   Scattered Clouds
12:15 PM 73.4 °F 66.2 °F 78% 30.06 in 7.0 mi SSE 10.4 mph 19.6 mph N/A   Scattered Clouds
12:35 PM 73.4 °F 66.2 °F 78% 30.05 in 7.0 mi SE 15.0 mph 20.7 mph N/A   Mostly Cloudy
12:55 PM 73.4 °F 66.2 °F 78% 30.04 in 7.0 mi SE 15.0 mph 23.0 mph N/A   Mostly Cloudy
1:15 PM 73.4 °F 66.2 °F 78% 30.02 in 7.0 mi SE 15.0 mph 21.9 mph N/A   Scattered Clouds
1:35 PM 73.4 °F 66.2 °F 78% 30.01 in 7.0 mi SE 11.5 mph 18.4 mph N/A   Scattered Clouds
1:55 PM 73.4 °F 66.2 °F 78% 30.00 in 7.0 mi SE 10.4 mph 21.9 mph N/A   Scattered Clouds
2:15 PM 73.4 °F 64.4 °F 73% 29.99 in 7.0 mi SE 15.0 mph 21.9 mph N/A   Mostly Cloudy
2:35 PM 73.4 °F 64.4 °F 73% 29.99 in 7.0 mi SE 15.0 mph 23.0 mph N/A   Scattered Clouds
2:55 PM 71.6 °F 64.4 °F 78% 30.00 in 7.0 mi SSE 10.4 mph - N/A   Mostly Cloudy
3:15 PM 71.6 °F 66.2 °F 83% 30.00 in 5.0 mi SE 12.7 mph 17.3 mph N/A   Haze
3:35 PM 69.8 °F 66.2 °F 88% 29.99 in 5.0 mi SE 10.4 mph - N/A   Overcast
3:55 PM 69.8 °F 66.2 °F 88% 29.99 in 5.0 mi SE 11.5 mph - N/A   Overcast
4:15 PM 69.8 °F 64.4 °F 83% 29.99 in 5.0 mi SE 9.2 mph 18.4 mph N/A   Haze
4:35 PM 69.8 °F 64.4 °F 83% 29.99 in 5.0 mi SE 12.7 mph - N/A   Haze
4:55 PM 69.8 °F 66.2 °F 88% 29.98 in 4.0 mi SE 11.5 mph 16.1 mph N/A   Overcast
5:15 PM 69.8 °F 66.2 °F 88% 29.97 in 2.0 mi SE 10.4 mph 18.4 mph N/A   Overcast
5:35 PM 69.8 °F 66.2 °F 88% 29.97 in 3.0 mi SE 11.5 mph 17.3 mph N/A   Overcast
5:55 PM 69.8 °F 66.2 °F 88% 29.97 in 4.0 mi SE 10.4 mph - N/A   Overcast
6:15 PM 69.8 °F 64.4 °F 83% 29.97 in 4.0 mi SE 11.5 mph 16.1 mph N/A   Overcast
6:35 PM 69.8 °F 66.2 °F 88% 29.97 in 5.0 mi SE 9.2 mph - N/A   Overcast
6:55 PM 69.8 °F 64.4 °F 83% 29.97 in 5.0 mi SE 12.7 mph 17.3 mph N/A   Overcast
7:15 PM 69.8 °F 64.4 °F 83% 29.97 in 5.0 mi SE 10.4 mph 17.3 mph N/A   Overcast
7:35 PM 69.8 °F 66.2 °F 88% 29.97 in 5.0 mi SE 11.5 mph 17.3 mph N/A   Overcast
7:55 PM 69.8 °F 66.2 °F 88% 29.96 in 5.0 mi SE 11.5 mph 18.4 mph N/A Rain Light Rain
8:15 PM 69.8 °F 66.2 °F 88% 29.96 in 4.0 mi SE 11.5 mph 19.6 mph N/A   Overcast
8:35 PM 69.8 °F 66.2 °F 88% 29.95 in 5.0 mi SE 13.8 mph 21.9 mph N/A Rain Light Rain
8:55 PM 69.8 °F 66.2 °F 88% 29.95 in 5.0 mi SE 11.5 mph 19.6 mph N/A   Overcast
9:15 PM 69.8 °F 66.2 °F 88% 29.95 in 5.0 mi SE 12.7 mph 18.4 mph N/A   Overcast
9:35 PM 69.8 °F 66.2 °F 88% 29.95 in 5.0 mi SE 12.7 mph 19.6 mph N/A   Overcast
9:55 PM 69.8 °F 66.2 °F 88% 29.95 in 5.0 mi SSE 11.5 mph 18.4 mph N/A   Overcast
10:15 PM 69.8 °F 66.2 °F 88% 29.94 in 5.0 mi SSE 11.5 mph 19.6 mph N/A   Overcast
10:35 PM 69.8 °F 66.2 °F 88% 29.93 in 5.0 mi SE 13.8 mph 17.3 mph N/A   Overcast
10:55 PM 69.8 °F 68.0 °F 94% 29.92 in 5.0 mi SSE 15.0 mph 23.0 mph N/A   Overcast
11:15 PM 69.8 °F 66.2 °F 88% 29.92 in 5.0 mi SSE 12.7 mph 19.6 mph N/A   Overcast
11:35 PM 69.8 °F 68.0 °F 94% 29.92 in 5.0 mi SSE 12.7 mph 20.7 mph N/A   Overcast
11:55 PM 69.8 °F 66.2 °F 88% 29.90 in 5.0 mi SSE 10.4 mph 20.7 mph N/A   Overcast